Bar Harbor, ME

7:08 AM EDT on October 23, 2019 (GMT -0400)
Hancock County-Bar Harbor

Weather History for KBHB - June, 2019

Change the Weather History Date:

Friday, June 7, 2019

  Actual Average Record
Temperature  
Mean Temperature 59 °F -  
Max Temperature 70 °F 70 °F 87 °F (1999)
Min Temperature 48 °F 48 °F 37 °F (1997)
Degree Days  
Heating Degree Days 6    
Growing Degree Days 9 (Base 50)    
Moisture  
Dew Point 47 °F    
Average Humidity 69    
Maximum Humidity 100    
Minimum Humidity 36    
Precipitation  
Precipitation 0.00 in - - ()
Sea Level Pressure  
Sea Level Pressure 29.90 in    
Wind  
Wind Speed 4 mph (SW)    
Max Wind Speed 13 mph    
Max Gust Speed -    
Visibility 8 miles    
Events Fog    
Averages and records for this station are not official NWS values.
T = Trace of Precipitation, MM = Missing Value Source: NWS Daily Summary

Daily Weather History Graph

Daily Weather History Graph

Search for Another Location

Airport or City:

Astronomy

Jun. 07, 2019 Rise Set
Actual Time 4:49 AM EDT 8:15 PM EDT
Civil Twilight 4:13 AM EDT 8:51 PM EDT
Nautical Twilight 3:25 AM EDT 9:39 PM EDT
Astronomical Twilight 2:25 AM EDT 10:39 PM EDT
Moon 9:05 AM EDT (6/7) No Moon Set
Length of Visible Light 16h 38m
Length of Day
15h 25m
Waxing Crescent, 22% of the Moon is Illuminated
Jun 7
Waxing Crescent
Jun 10
First Quarter
Jun 17
Full
Jun 25
Last Quarter
Jul 2
New

Hourly Weather History & Observations

Time (EDT) Temp. Dew Point Humidity Pressure Visibility Wind Dir Wind Speed Gust Speed Precip Events Conditions
12:43 AM 51.8 °F 51.8 °F 100% 29.84 in 1.8 mi Calm Calm - N/A   Clear
12:49 AM 51.8 °F 51.8 °F 100% 29.84 in 0.5 mi Calm Calm - N/A Fog Fog
12:56 AM 51.1 °F 50.0 °F 96% 29.85 in 0.2 mi Calm Calm - N/A Fog Fog
1:04 AM 51.8 °F 51.8 °F 100% 29.84 in 1.0 mi Calm Calm - N/A   Clear
1:07 AM 51.8 °F 51.8 °F 100% 29.84 in 2.0 mi Calm Calm - N/A   Clear
1:10 AM 51.8 °F 50.0 °F 94% 29.85 in 3.0 mi Variable 3.5 mph - N/A   Partly Cloudy
1:56 AM 51.1 °F 50.0 °F 96% 29.87 in 7.0 mi North 3.5 mph - N/A   Clear
2:56 AM 52.0 °F 48.9 °F 89% 29.87 in 10.0 mi North 5.8 mph - N/A   Clear
3:56 AM 50.0 °F 46.0 °F 86% 29.88 in 10.0 mi North 4.6 mph - N/A   Clear
4:56 AM 48.9 °F 43.0 °F 80% 29.90 in 10.0 mi North 8.1 mph - N/A   Clear
5:56 AM 50.0 °F 43.0 °F 77% 29.91 in 10.0 mi North 5.8 mph - N/A   Clear
6:56 AM 55.0 °F 42.1 °F 62% 29.92 in 10.0 mi North 6.9 mph - N/A   Clear
7:56 AM 59.0 °F 43.0 °F 55% 29.95 in 10.0 mi North 4.6 mph - N/A   Clear
8:56 AM 62.1 °F 39.9 °F 44% 29.95 in 10.0 mi Variable 5.8 mph - N/A   Clear
9:56 AM 64.0 °F 41.0 °F 43% 29.95 in 10.0 mi SE 5.8 mph - N/A   Clear
10:56 AM 66.0 °F 41.0 °F 40% 29.95 in 10.0 mi Variable 4.6 mph - N/A   Clear
11:56 AM 66.9 °F 42.1 °F 40% 29.94 in 10.0 mi Variable 4.6 mph - N/A   Clear
12:56 PM 69.1 °F 41.0 °F 36% 29.92 in 10.0 mi ESE 8.1 mph - N/A   Clear
1:56 PM 68.0 °F 46.0 °F 45% 29.91 in 10.0 mi SE 10.4 mph - N/A   Clear
2:56 PM 70.0 °F 46.9 °F 44% 29.90 in 10.0 mi SSW 11.5 mph - N/A   Clear
3:56 PM 70.0 °F 46.0 °F 42% 29.89 in 10.0 mi SSW 12.7 mph - N/A   Clear
4:56 PM 66.9 °F 48.9 °F 52% 29.89 in 10.0 mi SSW 12.7 mph - N/A   Clear
5:56 PM 64.0 °F 48.9 °F 58% 29.89 in 10.0 mi SSW 12.7 mph - N/A   Clear
7:56 PM 59.0 °F 48.9 °F 69% 29.91 in 10.0 mi SSW 9.2 mph - N/A   Partly Cloudy
8:56 PM 57.0 °F 48.0 °F 72% 29.93 in 10.0 mi SSW 8.1 mph - N/A   Clear
9:56 PM 55.9 °F 48.0 °F 75% 29.96 in 10.0 mi SW 4.6 mph - N/A   Mostly Cloudy
10:56 PM 55.9 °F 46.0 °F 69% 29.99 in 10.0 mi SW 5.8 mph - N/A   Overcast
11:56 PM 55.9 °F 46.9 °F 72% 29.99 in 10.0 mi SW 3.5 mph - N/A   Overcast